This is the latest recevied weather packets stored in our database for station/object N7SWJ. If no packets are shown the sender has not sent any weather packets the latest 1 day(s).
| Time | Temp. | Humidity | Pressure | Rain* | Wind** | Luminosity | Snow |
|---|---|---|---|---|---|---|---|
| 1778014978 | 2.78° C | 94% | 1015.2 hPa | 0 mm | 0.89 m/s, 72° | 107 W/m² | - |
| 1778014675 | 2.78° C | 94% | 1015.5 hPa | 0 mm | 0.45 m/s, 70° | 124 W/m² | - |
| 1778014373 | 2.78° C | 94% | 1015.5 hPa | 0 mm | 1.79 m/s, 24° | 158 W/m² | - |
| 1778014069 | 2.78° C | 94% | 1015.5 hPa | 1.27 mm | 0.45 m/s, 58° | 195 W/m² | - |
| 1778013767 | 2.78° C | 94% | 1015.8 hPa | 1.27 mm | 0.89 m/s, 69° | 161 W/m² | - |
| 1778013464 | 2.78° C | 94% | 1016 hPa | 1.78 mm | 0.45 m/s, 59° | 145 W/m² | - |
| 1778013161 | 2.78° C | 94% | 1016.1 hPa | 1.78 mm | 0.89 m/s, 45° | 169 W/m² | - |
| 1778012857 | 2.78° C | 94% | 1016 hPa | 1.27 mm | 0.45 m/s, 55° | 196 W/m² | - |
| 1778012553 | 2.78° C | 94% | 1016.2 hPa | 3.05 mm | 0.45 m/s, 47° | 159 W/m² | - |
| 1778012250 | 2.78° C | 94% | 1015.9 hPa | 1.78 mm | 0.45 m/s, 70° | 151 W/m² | - |
| 1778011948 | 2.78° C | 94% | 1016.3 hPa | 3.05 mm | 1.34 m/s, 18° | 182 W/m² | - |
| 1778011646 | 2.78° C | 94% | 1016.2 hPa | 1.27 mm | 0.45 m/s, 49° | 114 W/m² | - |
| 1778011342 | 2.78° C | 94% | 1016.3 hPa | 1.78 mm | 0.45 m/s, 74° | 98 W/m² | - |
| 1778011038 | 2.22° C | 94% | 1016.3 hPa | 1.78 mm | 0 m/s | 112 W/m² | - |
| 1778010736 | 2.22° C | 94% | 1016.7 hPa | 0 mm | 0.89 m/s, 76° | 120 W/m² | - |
| 1778010433 | 2.22° C | 94% | 1016.7 hPa | 1.27 mm | 0.45 m/s, 85° | 96 W/m² | - |
| 1778010129 | 2.22° C | 94% | 1016.5 hPa | 1.27 mm | 0.89 m/s, 82° | 71 W/m² | - |
| 1778009825 | 2.22° C | 94% | 1016.3 hPa | 0 mm | 0.45 m/s, 24° | 101 W/m² | - |
| 1778009522 | 1.67° C | 93% | 1016.3 hPa | 1.78 mm | 0.89 m/s, 69° | 95 W/m² | - |
| 1778009221 | 1.67° C | 93% | 1016.3 hPa | 1.78 mm | 0.89 m/s, 79° | 94 W/m² | - |
| 1778008918 | 1.67° C | 93% | 1016.2 hPa | 1.27 mm | 1.79 m/s, 45° | 101 W/m² | - |
| 1778008616 | 1.67° C | 93% | 1016.3 hPa | 1.27 mm | 0.89 m/s, 355° | 82 W/m² | - |
| 1778008314 | 2.22° C | 92% | 1016.3 hPa | 1.27 mm | 0.45 m/s, 92° | 108 W/m² | - |
| 1778008010 | 2.78° C | 91% | 1016.3 hPa | 1.78 mm | 1.34 m/s, 59° | 65 W/m² | - |
| 1778007710 | 3.89° C | 91% | 1016.3 hPa | 3.05 mm | 0.45 m/s, 64° | 76 W/m² | - |
* Rain latest hour (hover to see other rain measurements)
** Current wind speed in m/s (hover to see current wind gust speed)